sat.trackr.live / text

‹ back to catalog

STARLINK-4575

NORAD 53565 · 2022-101AQ

PAYLOAD ACTIVE UNKNOWN

§ Identity

Operator
Country
US
Launch date
2022-08-19
Launch site
AFETR
Launch vehicle
Mass (kg)
RCS (m²)

Purposes: comms

External: N2YO · Heavens-Above · Gunter

§ Orbital elements

Epoch: 2026-09-19T22:09:31.819680Z

Period
93.85 min
Inclination
53.1562°
Eccentricity
0.0001087
Mean motion
15.34388678 rev/d
Perigee alt
462.0 km
Apogee alt
463.5 km
Semi-major
6,840.9 km
B*
2.0532e-5
RAAN
246.3759°
Arg perigee
96.9865°
Mean anomaly
263.1261°
Rev number
22,664

§ Raw data

STARLINK-45751 53565U 22101AQ  26262.92328495  .00000317  00000+0  20532-4 0  99962 53565  53.1562 246.3759 0001087  96.9865 263.1261 15.34388678226647

JSON: /api/v1/satellites/53565 · /tle

For live sub-satellite position, see the globe view (requires WebGL).

§ Visibility from observer

Set your observer location to see the next 7 days of passes ≥ 10°. The values pass through the URL so the page stays shareable.

No JS? Fill the form by hand. The geolocation button needs JavaScript.